[[{"header":{"parameterUnit":"m.s-1","parameterCategory":1,"la1":30.2991,"la2":30.254,"lo1":-89.0895,"lo2":-89.0444,"dy":0.0017,"dx":0.0017,"nx":28,"ny":28,"refTime":"2024-08-10T15:00:00:Z","depth":0,"parameterNumber":2,"parameterNumberName":"U-component_of_WINDS"},"data":[0,0,0,0,0,0,0,0,0,0,0,0,0,0,0,0,0,0,0,0,0,0,0,0,0,0,0,0,0,0,0,0,0,0,0,0,0,0,0,0,0,0,0,0,0,0,0,0,0,0,0,0,0,0,0,0,0,0,0.6053,0.6054,0,0.6107,0.6107,0.6108,0.6102,0.6101,0.61,0.6099,0.6156,0.6158,0.6161,0,0,0,0,0,0,0,0,0,0,0,0,0,0.5948,0.595,0.6053,0.6054,0.6054,0.6107,0.6107,0.6108,0.6102,0.6101,0.61,0.6099,0.6155,0.6158,0.6161,0,0,0,0,0,0,0,0,0,0,0,0,0,0.5997,0.5951,0.6053,0.6058,0.6059,0.6106,0.6107,0.6108,0.6102,0.6101,0.61,0.6098,0.6154,0.6158,0.6161,0.6208,0,0,0.6172,0.6173,0,0,0,0,0,0,0,0,0.5994,0.6001,0.6056,0.6057,0.6058,0.6096,0.6091,0.6142,0.6103,0.6086,0.6099,0.6098,0.6137,0.6142,0.6155,0.6211,0.6214,0.6172,0.6174,0.6176,0.6177,0,0,0,0,0,0,0,0.5991,0.5999,0.6074,0.6057,0.6058,0.6058,0.6063,0.6101,0.6118,0.6087,0.6087,0.6093,0.6138,0.6152,0.6156,0.6214,0.6172,0.6175,0.6177,0.6179,0.6314,0.6315,0,0,0,0,0,0,0.5986,0.5996,0.6073,0.6076,0.6022,0.6061,0.6067,0.6085,0.6118,0.6121,0.6094,0.6093,0.6146,0.6152,0.6158,0.6217,0.6176,0.6179,0.6181,0.6312,0.6314,0.6316,0,0,0,0,0,0,0.5984,0.5993,0.607,0.6036,0.6046,0.6064,0.6085,0.6087,0.6101,0.6123,0.6126,0.6105,0.6146,0.6153,0.6196,0.6219,0.618,0.6184,0.631,0.6313,0.6315,0.6333,0,0,0,0,0,0,0.5981,0.5992,0.601,0.6036,0.6047,0.6107,0.6086,0.6089,0.6107,0.6105,0.6134,0.6138,0.6145,0.6191,0.62,0.6223,0.6186,0.6308,0.6311,0.6314,0.6331,0.6336,0.634,0,0,0,0,0,0.5977,0.6013,0.601,0.602,0.6069,0.6108,0.6115,0.6122,0.6109,0.6127,0.6141,0.6137,0.6215,0.6196,0.6205,0.623,0.6307,0.6311,0.6314,0.6329,0.6335,0.634,0,0,0,0,0,0,0.5989,0.6016,0.6014,0.6059,0.6081,0.6107,0.613,0.6128,0.6155,0.6152,0.6161,0.6168,0.6211,0.6225,0.6203,0.6278,0.6259,0.6265,0.6267,0.6273,0.6278,0.6274,0.6189,0,0,0,0,0,0.5996,0.6024,0.6047,0.6085,0.6096,0.6111,0.6128,0.6132,0.6156,0.6165,0.6182,0.6206,0.6236,0.6255,0.6284,0.6333,0.634,0.6354,0.6359,0.6363,0.6368,0.6396,0.6403,0.6327,0.6327,0.6327,0,0,0.6013,0.6031,0.6049,0.6088,0.6106,0.6136,0.6119,0.6151,0.6174,0.617,0.6212,0.6225,0.6252,0.6299,0.632,0.6311,0.639,0.6367,0.637,0.6373,0.64,0.6407,0.6414,0.6329,0.6329,0.6328,0,0,0.6058,0.6074,0.6108,0.6126,0.6153,0.6163,0.6171,0.6197,0.6206,0.6248,0.6246,0.6273,0.6324,0.6344,0.6361,0.6415,0.6412,0.6424,0.6449,0.6476,0.6482,0.6488,0.6508,0.6515,0.6429,0.6429,0.6429,0,0.6075,0.6119,0.6126,0.6159,0.6177,0.6174,0.6209,0.6227,0.6262,0.6275,0.6264,0.6329,0.6347,0.6398,0.6412,0.6425,0.6436,0.6421,0.6481,0.6486,0.6491,0.6511,0.6518,0.643,0.643,0.643,0.643,0,0.614,0.6171,0.6195,0.6228,0.6249,0.6283,0.6296,0.6316,0.6318,0.633,0.6373,0.6395,0.6428,0.6441,0.6443,0.6493,0.6487,0.6479,0.646,0.65,0.6518,0.6526,0.6432,0.6431,0.6431,0.6431,0,0,0.6193,0.6231,0.6239,0.6255,0.6285,0.631,0.6344,0.6376,0.6394,0.6418,0.6448,0.6492,0.6485,0.6504,0.6509,0.6533,0.6575,0.6522,0.6522,0.6531,0.6633,0.6639,0.6648,0.6574,0.6575,0.6576,0.6631,0,0.6242,0.6302,0.6309,0.6363,0.6392,0.6391,0.6421,0.6443,0.6455,0.6482,0.6496,0.6527,0.6515,0.6526,0.655,0.6565,0.6596,0.6561,0.6602,0.6604,0.6596,0.6657,0.6664,0.6714,0.6638,0.6639,0.664,0,0.6307,0.6333,0.6389,0.6416,0.6429,0.6455,0.6486,0.6512,0.6538,0.6545,0.6567,0.6569,0.6606,0.6586,0.6637,0.6613,0.663,0.6641,0.6643,0.6647,0.6624,0.6664,0.673,0.6738,0.6651,0.665,0.665,0,0.6341,0.639,0.6431,0.6444,0.6476,0.6495,0.651,0.6534,0.6554,0.6581,0.6594,0.6625,0.6643,0.6667,0.6679,0.6663,0.673,0.671,0.6737,0.6737,0.6752,0.6751,0.6822,0.6762,0.6762,0.6762,0.6762,0,0.6395,0.643,0.6447,0.6472,0.6511,0.652,0.6559,0.6573,0.6595,0.6623,0.6624,0.6651,0.6664,0.6693,0.6702,0.6744,0.6752,0.6759,0.6761,0.6759,0.6758,0.6771,0.6768,0.6764,0.6763,0.6763,0.6763,0,0.644,0.6453,0.6497,0.6524,0.6531,0.6559,0.6583,0.6608,0.662,0.6656,0.6665,0.6684,0.6718,0.6732,0.6774,0.678,0.6828,0.6827,0.6819,0.682,0.6847,0.6844,0.6929,0.6941,0.6873,0.6873,0.6874,0,0.6474,0.65,0.653,0.6549,0.6564,0.6594,0.6614,0.6625,0.6646,0.6678,0.6699,0.6733,0.6761,0.6816,0.6834,0.6867,0.6867,0.6895,0.6872,0.687,0.6868,0.6867,0.687,0.6899,0.69,0.69,0.6901,0,0.6532,0.6538,0.6566,0.6597,0.662,0.6645,0.667,0.6685,0.67,0.6723,0.6758,0.678,0.6823,0.6858,0.6891,0.6907,0.6907,0.6908,0.6916,0.6914,0.6909,0.6913,0.6831,0.6906,0.6905,0.6905,0.6905,0.6904,0.6573,0.6597,0.6622,0.6654,0.6674,0.6697,0.6722,0.6737,0.6766,0.6802,0.6806,0.6844,0.687,0.6916,0.6933,0.6964,0.6956,0.6968,0.6971,0.6974,0.6976,0.6904,0.697,0.697,0.6969,0.6969,0.6969,0,0.6633,0.6649,0.6678,0.6712,0.6738,0.6735,0.6762,0.6783,0.6817,0.6841,0.6868,0.6909,0.6943,0.6964,0.6998,0.7019,0.702,0.7027,0.7026,0.703,0.698,0.697,0.7026,0.7026,0.7026,0.7026,0.7026,0.7026,0.6667,0.6708,0.6716,0.6767,0.6783,0.682,0.6836,0.6858,0.6877,0.6923,0.6951,0.6964,0.6988,0.7024,0.7055,0.706,0.7073,0.7082,0.7087,0.7039,0.7034,0.7028,0.7018,0.7084,0.7084,0.7134,0.7135,0.7135]},{"header":{"parameterUnit":"m.s-1","parameterCategory":1,"la1":30.2991,"la2":30.254,"lo1":-89.0895,"lo2":-89.0444,"dy":0.0017,"dx":0.0017,"nx":28,"ny":28,"refTime":"2024-08-10T15:00:00:Z","depth":0,"parameterNumber":3,"parameterNumberName":"V-component_of_WINDS"},"data":[0,0,0,0,0,0,0,0,0,0,0,0,0,0,0,0,0,0,0,0,0,0,0,0,0,0,0,0,0,0,0,0,0,0,0,0,0,0,0,0,0,0,0,0,0,0,0,0,0,0,0,0,0,0,0,0,0,0,-1.4638,-1.4638,0,-1.4674,-1.4674,-1.4675,-1.4697,-1.4697,-1.4697,-1.4697,-1.4731,-1.4731,-1.4732,0,0,0,0,0,0,0,0,0,0,0,0,0,-1.4586,-1.4587,-1.4638,-1.4638,-1.4639,-1.4674,-1.4674,-1.4675,-1.4697,-1.4697,-1.4697,-1.4697,-1.473,-1.4731,-1.4732,0,0,0,0,0,0,0,0,0,0,0,0,0,-1.4614,-1.4587,-1.4638,-1.4654,-1.4656,-1.4674,-1.4674,-1.4675,-1.4697,-1.4697,-1.4697,-1.4697,-1.473,-1.4731,-1.4732,-1.4736,0,0,-1.4736,-1.4736,0,0,0,0,0,0,0,0,-1.4612,-1.4616,-1.4651,-1.4653,-1.4655,-1.4681,-1.4669,-1.4695,-1.4697,-1.4681,-1.4697,-1.4697,-1.4714,-1.4716,-1.4723,-1.4738,-1.4739,-1.4736,-1.4737,-1.4737,-1.4738,0,0,0,0,0,0,0,-1.461,-1.4614,-1.4652,-1.4651,-1.4654,-1.4659,-1.4663,-1.4674,-1.4696,-1.4682,-1.4684,-1.4688,-1.4715,-1.4721,-1.4723,-1.4739,-1.4736,-1.4737,-1.4738,-1.4738,-1.4763,-1.4763,0,0,0,0,0,0,-1.4606,-1.4613,-1.4651,-1.4653,-1.4634,-1.466,-1.4664,-1.4672,-1.4696,-1.47,-1.4688,-1.4689,-1.4719,-1.4722,-1.4725,-1.4733,-1.4737,-1.4738,-1.4739,-1.4763,-1.4763,-1.4763,0,0,0,0,0,0,-1.4605,-1.4609,-1.4649,-1.4633,-1.4639,-1.466,-1.4669,-1.4673,-1.468,-1.47,-1.4704,-1.4691,-1.472,-1.4723,-1.4734,-1.4734,-1.4739,-1.474,-1.4763,-1.4763,-1.4763,-1.4748,0,0,0,0,0,0,-1.4603,-1.4609,-1.461,-1.4633,-1.464,-1.4658,-1.4669,-1.4674,-1.4682,-1.4684,-1.4704,-1.4707,-1.472,-1.4732,-1.4735,-1.4736,-1.4741,-1.4763,-1.4763,-1.4763,-1.4749,-1.4748,-1.4747,0,0,0,0,0,-1.4601,-1.4603,-1.461,-1.4615,-1.4642,-1.4658,-1.4662,-1.4678,-1.4682,-1.4684,-1.4698,-1.4707,-1.4734,-1.4733,-1.4737,-1.4738,-1.4763,-1.4763,-1.4763,-1.4749,-1.4748,-1.4747,0,0,0,0,0,0,-1.4578,-1.4606,-1.4615,-1.4624,-1.4639,-1.4662,-1.4665,-1.4675,-1.4688,-1.4689,-1.4707,-1.4711,-1.4721,-1.473,-1.4729,-1.4745,-1.475,-1.475,-1.4738,-1.4737,-1.4736,-1.4734,-1.4742,0,0,0,0,0,-1.4574,-1.4585,-1.4609,-1.4615,-1.4623,-1.4643,-1.465,-1.4661,-1.4677,-1.4683,-1.4697,-1.4711,-1.4723,-1.473,-1.4742,-1.475,-1.4756,-1.4753,-1.4752,-1.4751,-1.4752,-1.4759,-1.4759,-1.4762,-1.4762,-1.4762,0,0,-1.4565,-1.4583,-1.4588,-1.4611,-1.4624,-1.4635,-1.4647,-1.4658,-1.4667,-1.4684,-1.4696,-1.4707,-1.4724,-1.4735,-1.474,-1.4743,-1.4752,-1.4751,-1.475,-1.4751,-1.4759,-1.4759,-1.4759,-1.4762,-1.4762,-1.4762,0,0,-1.4556,-1.457,-1.4578,-1.4591,-1.4612,-1.4625,-1.4627,-1.465,-1.4659,-1.4672,-1.4686,-1.4696,-1.4715,-1.4728,-1.4737,-1.4736,-1.4746,-1.474,-1.4734,-1.4742,-1.4741,-1.4741,-1.4743,-1.4743,-1.474,-1.474,-1.474,0,-1.4543,-1.4562,-1.458,-1.4592,-1.4602,-1.462,-1.4629,-1.4641,-1.4663,-1.467,-1.4673,-1.4701,-1.4713,-1.4728,-1.4729,-1.4734,-1.4738,-1.4737,-1.474,-1.474,-1.474,-1.4742,-1.4743,-1.4739,-1.4739,-1.4739,-1.4739,0,-1.4546,-1.4558,-1.4562,-1.4587,-1.4597,-1.4607,-1.4627,-1.4636,-1.4647,-1.4661,-1.4675,-1.4691,-1.4708,-1.4712,-1.4721,-1.4729,-1.4731,-1.4737,-1.4742,-1.4739,-1.4741,-1.4742,-1.4738,-1.4738,-1.4739,-1.4739,0,0,-1.4521,-1.4558,-1.4559,-1.4572,-1.4597,-1.4607,-1.4618,-1.4637,-1.4645,-1.466,-1.4671,-1.4689,-1.4696,-1.4706,-1.4717,-1.4724,-1.4725,-1.4729,-1.473,-1.473,-1.4737,-1.4733,-1.4734,-1.4732,-1.4732,-1.4732,-1.4736,0,-1.4517,-1.454,-1.4558,-1.4574,-1.4588,-1.4606,-1.4617,-1.4633,-1.4647,-1.466,-1.4674,-1.4688,-1.4695,-1.4701,-1.4708,-1.4724,-1.4727,-1.4723,-1.4742,-1.4743,-1.4739,-1.4735,-1.473,-1.4733,-1.4737,-1.4737,-1.4737,0,-1.4515,-1.4533,-1.4551,-1.4578,-1.4584,-1.4593,-1.4613,-1.4625,-1.4645,-1.4654,-1.4668,-1.468,-1.4694,-1.4698,-1.4718,-1.4715,-1.4724,-1.4732,-1.4733,-1.4736,-1.474,-1.4739,-1.4735,-1.4736,-1.4739,-1.4738,-1.4738,0,-1.4498,-1.4526,-1.4542,-1.4551,-1.4582,-1.4589,-1.4602,-1.4622,-1.4633,-1.465,-1.4658,-1.4675,-1.4685,-1.4699,-1.4716,-1.4718,-1.4735,-1.474,-1.4744,-1.4743,-1.4747,-1.4746,-1.4745,-1.475,-1.475,-1.475,-1.475,0,-1.4493,-1.4503,-1.4535,-1.4544,-1.4558,-1.4579,-1.4591,-1.4605,-1.4624,-1.4637,-1.4653,-1.4664,-1.4686,-1.47,-1.4714,-1.4729,-1.4733,-1.4741,-1.4745,-1.4741,-1.474,-1.4747,-1.4748,-1.475,-1.475,-1.475,-1.475,0,-1.4476,-1.4497,-1.4516,-1.4545,-1.4553,-1.4561,-1.4586,-1.4596,-1.4612,-1.4628,-1.4633,-1.4656,-1.4674,-1.4693,-1.4716,-1.4726,-1.4741,-1.4745,-1.4735,-1.4737,-1.4741,-1.4741,-1.4745,-1.4747,-1.475,-1.475,-1.4749,0,-1.4472,-1.4481,-1.4512,-1.4523,-1.4537,-1.4553,-1.4565,-1.4587,-1.4599,-1.4624,-1.4631,-1.4651,-1.4668,-1.4696,-1.4715,-1.4733,-1.4739,-1.474,-1.4742,-1.4738,-1.4741,-1.4741,-1.4743,-1.4739,-1.4739,-1.4738,-1.4738,0,-1.4463,-1.4474,-1.4491,-1.4514,-1.4529,-1.4547,-1.4566,-1.4573,-1.4599,-1.4611,-1.4631,-1.4645,-1.4671,-1.469,-1.4712,-1.4725,-1.4736,-1.4738,-1.474,-1.4736,-1.473,-1.4735,-1.4734,-1.4737,-1.4737,-1.4738,-1.4738,-1.4738,-1.4453,-1.4464,-1.4488,-1.4508,-1.4525,-1.4543,-1.4555,-1.4573,-1.4591,-1.4615,-1.4626,-1.4647,-1.4668,-1.4699,-1.4712,-1.4728,-1.4731,-1.4733,-1.4734,-1.4735,-1.4735,-1.4727,-1.4731,-1.4731,-1.4732,-1.4732,-1.4732,0,-1.4447,-1.4464,-1.4483,-1.451,-1.4526,-1.4537,-1.4559,-1.4572,-1.459,-1.461,-1.4628,-1.4651,-1.4671,-1.4693,-1.4714,-1.4723,-1.4729,-1.4728,-1.4728,-1.4731,-1.473,-1.4727,-1.4723,-1.4723,-1.4723,-1.4723,-1.4723,-1.4723,-1.4445,-1.4464,-1.4479,-1.4507,-1.4524,-1.4545,-1.4557,-1.4574,-1.4591,-1.4617,-1.4635,-1.4649,-1.467,-1.4694,-1.4713,-1.4719,-1.4726,-1.4724,-1.4731,-1.473,-1.4731,-1.4731,-1.4729,-1.4725,-1.4725,-1.4732,-1.4732,-1.4732]}]]